Showing default

SPACEMOBILE-012, 100241

Orbit data source: Space-Track

SPACEMOBILE-012, 100241 is a payload satellite owned by AST & Science (US) in LEO that was launched on Wed, 05 Aug 2026 UTC launched from the Air Force Eastern Test Range (AFETR). Payload-class satellites include a variety of spacecraft equipped with specific instruments for various scientific and technological missions. These include communications satellites like Starlink; space stations such as the ISS; scientific satellites like the Hubble; Earth observation satellites from companies like Planet Labs, Umbra, and HawkEye 360; GPS; miniature CubeSats for education and research; and military/defense satellites.

Loading next visibility...
Identifier
100241, 2026-179B
Orbit
LEO
Country
Flag of USUS
Related business
Manufacturer
AST & Science
Mission
Operational spacecraft
Bus & Motor
BB BLOCK-2, EP
Mass
6,740 kg wet, 5,830 kg dry
Launch date (UTC)
2026-08-05 (2 months ago)
Launch vehicle
Unknown
Launch site
Air Force Eastern Test Range (AFETR)
Object type
Payload
Rocket body
Debris
Shape & HBR
CYL + 2 PAN + PLATE, 14.5 m
Radar Cross Section
Large (>1 m²)

Expand to show TLE details & history
Last TLE update: 22 hours ago

TLE from 22 hours ago
0 SPACEMOBILE-012
1 A0241U 26179B   26263.02592382  .00001227  00000-0  84950-4 0  9994
2 A0241  52.9948 120.4139 0007529 111.3755 248.8040 15.13299819  6923
Epoch: 2026-09-20T00:37Z
TLE epoch observation values (Epoch: 2026-09-20T00:37:19.818Z)
Latitude
-0.00002°
Longitude
112.15529°
Altitude
528.903 km
Speed
7.599 km/s
True Right ascension
08h 01m 39s
True Declination
0° 00' 00"
Sunlit
Object was in daylight at epoch
Visualization orbit readout
Latitude
Unknown
Longitude
Unknown
Altitude
Unknown
Speed
Unknown
Apparent Right ascension
Unknown
Apparent Declination
Unknown
Sunlit
N/A
Visualization observer readout
Local Sidereal Time
15:21:52
Azimuth
Unknown
Elevation
Unknown
Doppler factor
Unknown
Orbital elements
Apogee altitude
531.625 km
Perigee altitude
521.228 km
Semi-major axis
6,904.563 km
Eccentricity
0.00075
Inclination
52.9948°
RAAN
120.4139°
Arg. of periapsis
111.3755°
True anomaly
248.72359°
Mean anomaly
248.804°
Eccentric anomaly
248.76379°
Mean motion
3.78302 °/min
Orbital period
95.16 mins
BSTAR
0.00008495
Loading maneuver chart data...
Computing Atmospheric mass density...
Loading historical data...
Loading historical data...
Loading historical data...
Loading historical data...
Loading historical data...
Loading historical data...
Loading historical data...
Other satellites on launch #179 in the year 2026 (2026-08-05 UTC)

Documentation

Showing up to 5 results
|